FW1189 Weather Reports


time (UTC)temp
C
wind
direction
speed
KPH
gust
KPH
rain 1hr
cm
rain 24hr
cm
rain mn
cm
humidity
%
barometer
mb
20260507052727 2 337 1.6 3.2 0.00 1.14 0.00 71 1010.4
20260507052406 1 337 0.0 3.2 0.00 1.14 0.00 73 1010.3
20260507052106 1 337 0.0 3.2 0.00 1.17 0.00 77 1010.3
20260507051806 1 337 0.0 3.2 0.00 1.17 0.00 78 1010.3
20260507051506 1 340 0.0 3.2 0.00 1.19 0.00 79 1010.3
20260507051207 1 344 0.0 3.2 0.00 1.22 0.00 78 1010.1
20260507050927 1 344 0.0 3.2 0.00 1.22 0.00 79 1010.1
20260507050606 1 0 0.0 3.2 0.00 1.22 0.00 78 1010.3
20260507050307 1 352 0.0 3.2 0.00 1.22 0.00 77 1010.2
20260507050007 1 334 0.0 3.2 0.00 1.22 0.00 74 1010.1
20260507045707 1 331 0.0 3.2 0.00 1.22 0.00 74 1010.2
20260507045427 1 331 0.0 3.2 0.00 1.22 0.00 73 1010.2
20260507045106 1 356 0.0 3.2 0.00 1.22 0.00 77 1009.8
20260507044806 1 1 0.0 3.2 0.00 1.27 0.00 79 1010.1
20260507044507 1 7 0.0 3.2 0.00 1.27 0.00 79 1010.1
20260507044206 0 355 0.0 3.2 0.00 1.27 0.00 79 1010.1
20260507043907 0 71 0.0 3.2 0.00 1.27 0.00 81 1010.1
20260507043606 0 83 0.0 3.2 0.00 1.27 0.00 80 1010.0
20260507043306 0 53 0.0 3.2 0.00 1.27 0.00 80 1009.8
20260507043006 0 19 0.0 3.2 0.00 1.27 0.00 80 1009.8
20260507042706 0 2 0.0 3.2 0.00 1.27 0.00 81 1009.8
20260507042407 0 358 0.0 3.2 0.00 1.27 0.00 81 1009.6
20260507042107 1 348 1.6 6.4 0.00 1.27 0.00 80 1009.6
20260507041827 1 348 1.6 6.4 0.00 1.27 0.00 79 1009.6
20260507041507 1 347 3.2 6.4 0.00 1.27 0.00 79 1009.6
20260507041206 1 349 1.6 6.4 0.00 1.27 0.00 77 1009.6
20260507040906 1 344 1.6 3.2 0.00 1.27 0.00 77 1009.5
20260507040606 1 344 1.6 3.2 0.00 1.27 0.00 76 1009.6
20260507040307 1 339 1.6 3.2 0.00 1.27 0.00 76 1009.6
20260507040006 1 339 1.6 3.2 0.00 1.27 0.00 76 1009.8
20260507035707 2 339 1.6 3.2 0.00 1.27 0.00 74 1009.5
20260507035406 2 337 3.2 6.4 0.00 1.27 0.00 72 1009.6
20260507035106 2 337 3.2 6.4 0.00 1.27 0.00 73 1009.7
20260507034827 2 337 3.2 6.4 0.00 1.27 0.00 72 1009.6
20260507034506 2 334 3.2 6.4 0.00 1.27 0.00 72 1009.6
20260507034206 2 338 3.2 6.4 0.00 1.27 0.00 73 1009.6
20260507033906 1 338 3.2 6.4 0.00 1.27 0.00 72 1009.5
20260507033606 1 340 3.2 6.4 0.00 1.27 0.00 76 1009.7
20260507033328 2 339 3.2 6.4 0.00 1.27 0.00 75 1009.6
20260507033027 2 337 3.2 6.4 0.00 1.27 0.00 74 1009.8
20260507032706 1 337 3.2 6.4 0.00 1.27 0.00 74 1009.7
20260507032406 1 342 1.6 6.4 0.00 1.27 0.00 75 1009.8
20260507032107 1 346 1.6 6.4 0.00 1.27 0.00 76 1009.7
20260507031827 1 350 1.6 6.4 0.00 1.27 0.00 76 1009.7
20260507031527 1 347 1.6 6.4 0.00 1.27 0.00 78 1009.7
20260507031206 1 347 1.6 6.4 0.00 1.27 0.00 78 1009.7
20260507030906 1 348 1.6 6.4 0.00 1.27 0.00 79 1009.7
20260507030606 0 3 0.0 6.4 0.00 1.27 0.00 81 1009.6
20260507030327 1 358 0.0 3.2 0.00 1.27 0.00 81 1009.6
20260507030027 1 353 0.0 3.2 0.00 1.27 0.00 81 1009.6
20260507025706 1 346 1.6 3.2 0.00 1.27 0.00 81 1009.5
20260507025407 1 347 1.6 3.2 0.00 1.27 0.00 81 1009.8
20260507025106 1 342 1.6 3.2 0.00 1.27 0.00 79 1009.7
20260507024806 1 346 0.0 3.2 0.00 1.27 0.00 79 1009.6
20260507024506 1 344 0.0 3.2 0.00 1.27 0.00 79 1009.6
20260507024206 1 342 0.0 3.2 0.00 1.27 0.00 78 1009.7
20260507023936 1 339 1.6 6.4 0.00 1.27 0.00 78 1009.5
20260507023606 2 339 1.6 6.4 0.00 1.27 0.00 77 1009.6
20260507023306 2 338 1.6 6.4 0.00 1.27 0.00 76 1009.6
20260507023027 1 337 1.6 6.4 0.00 1.27 0.00 78 1009.6
20260507022727 2 339 1.6 3.2 0.00 1.27 0.00 77 1009.6
20260507022406 1 341 1.6 3.2 0.00 1.27 0.00 76 1009.6
20260507022106 1 341 1.6 6.4 0.00 1.27 0.00 79 1009.4
20260507021806 2 338 1.6 6.4 0.00 1.27 0.00 78 1009.5
20260507021506 2 337 3.2 6.4 0.00 1.27 0.00 75 1009.6
20260507021206 2 339 3.2 6.4 0.00 1.27 0.00 76 1009.5
20260507020906 1 340 1.6 6.4 0.00 1.27 0.00 78 1009.7
20260507020606 1 344 1.6 3.2 0.00 1.27 0.00 77 1009.5
20260507020306 2 349 0.0 3.2 0.00 1.27 0.00 78 1009.6
20260507020027 2 348 0.0 3.2 0.00 1.27 0.00 77 1009.6
20260507015706 1 345 0.0 3.2 0.00 1.27 0.00 75 1009.6
20260507015406 1 341 1.6 3.2 0.00 1.27 0.00 78 1009.5
20260507015106 1 338 1.6 3.2 0.00 1.27 0.00 78 1009.6
20260507014806 1 348 1.6 3.2 0.00 1.27 0.00 78 1009.6
20260507014506 1 20 0.0 3.2 0.00 1.27 0.00 78 1009.6
20260507014207 1 59 0.0 3.2 0.00 1.27 0.00 78 1009.5
20260507013927 1 55 0.0 3.2 0.00 1.27 0.00 78 1009.5
20260507013606 1 46 0.0 3.2 0.00 1.27 0.00 78 1009.6
20260507013327 1 15 0.0 3.2 0.00 1.27 0.00 78 1009.6
20260507013006 1 350 1.6 3.2 0.00 1.27 0.00 77 1009.5
20260507012706 2 339 1.6 3.2 0.00 1.27 0.00 77 1009.7
20260507012406 2 337 1.6 6.4 0.00 1.27 0.00 76 1009.5
20260507012106 2 337 1.6 6.4 0.00 1.27 0.00 75 1009.5
20260507011827 2 339 1.6 6.4 0.00 1.27 0.00 73 1009.5
20260507011506 2 341 1.6 6.4 0.00 1.27 0.00 73 1009.4
20260507010606 2 339 3.2 6.4 0.00 1.27 0.00 73 1009.5
20260507010306 2 332 3.2 6.4 0.00 1.27 0.00 74 1009.6
20260507010006 2 329 3.2 6.4 0.00 1.27 0.00 74 1009.7
20260507005705 2 320 1.6 3.2 0.00 1.27 0.00 76 1009.5
20260507005406 2 319 0.0 3.2 0.00 1.27 0.00 78 1009.4
20260507005106 1 0 0.0 0.0 0.00 1.27 0.00 81 1009.4
20260507004806 1 0 0.0 3.2 0.00 1.27 0.00 83 1009.5
20260507004506 1 0 0.0 3.2 0.00 1.27 0.00 83 1009.7
20260507004206 1 0 0.0 3.2 0.00 1.27 0.00 82 1009.6
20260507003905 1 0 0.0 3.2 0.00 1.27 0.00 83 1009.5
20260507003606 1 22 0.0 3.2 0.00 1.27 0.00 83 1009.6
20260507003306 1 27 0.0 3.2 0.00 1.27 0.00 82 1009.6
20260507003006 1 25 0.0 3.2 0.00 1.27 0.00 82 1009.6
20260507002706 1 21 0.0 3.2 0.00 1.27 0.00 82 1009.6
20260507002406 1 360 0.0 3.2 0.00 1.27 0.00 82 1009.7
20260507002106 1 360 0.0 3.2 0.00 1.27 0.00 81 1009.6
20260507001827 1 360 0.0 3.2 0.00 1.27 0.00 81 1009.5
20260507001506 1 0 0.0 3.2 0.00 1.27 0.00 80 1009.6
20260507001206 1 0 0.0 3.2 0.00 1.27 0.00 80 1009.4
20260507000905 1 0 0.0 3.2 0.00 1.27 0.00 79 1009.7
20260507000606 1 360 0.0 3.2 0.00 1.27 0.00 80 1009.5
20260507000306 1 360 0.0 3.2 0.00 1.27 0.00 80 1009.5
20260507000006 1 359 0.0 3.2 0.00 1.27 0.00 80 1009.7
20260506235706 1 358 0.0 3.2 0.00 1.27 0.00 81 1009.6
20260506235406 1 358 0.0 3.2 0.00 1.27 0.00 81 1009.6
20260506235106 1 0 0.0 3.2 0.00 1.27 0.00 80 1009.7
20260506234806 1 0 0.0 3.2 0.00 1.27 0.00 80 1009.6
20260506234506 2 0 0.0 3.2 0.00 1.27 0.00 79 1009.4
20260506234206 2 354 0.0 3.2 0.00 1.27 0.00 78 1009.6
20260506233906 2 346 0.0 3.2 0.00 1.27 0.00 76 1009.6
20260506233606 2 346 0.0 3.2 0.00 1.27 0.00 76 1009.5
20260506233306 2 360 0.0 3.2 0.00 1.27 0.00 77 1009.4
20260506233006 2 0 0.0 3.2 0.00 1.27 0.00 77 1009.5
20260506232707 2 355 0.0 3.2 0.00 1.27 0.00 78 1009.4
20260506232406 2 350 0.0 3.2 0.00 1.27 0.00 78 1009.5
20260506232106 2 346 1.6 3.2 0.00 1.27 0.00 80 1009.6
20260506231806 2 340 1.6 6.4 0.00 1.27 0.00 80 1009.6
20260506231506 2 337 1.6 6.4 0.00 1.27 0.00 79 1009.7
20260506231206 2 337 1.6 6.4 0.00 1.27 0.00 78 1009.6
20260506230905 2 337 0.0 3.2 0.00 1.27 0.00 79 1009.5
20260506230606 2 337 0.0 3.2 0.00 1.27 0.00 78 1009.7
20260506230305 2 0 0.0 3.2 0.00 1.27 0.00 78 1009.8
20260506230007 2 0 0.0 3.2 0.00 1.27 0.00 78 1009.6
20260506225726 2 0 0.0 3.2 0.00 1.27 0.00 78 1009.7
20260506225406 2 0 0.0 3.2 0.00 1.27 0.00 78 1009.8
20260506225106 2 331 0.0 3.2 0.00 1.27 0.00 77 1009.7
20260506224806 2 334 0.0 3.2 0.00 1.27 0.00 76 1009.9
20260506224526 2 334 0.0 3.2 0.00 1.27 0.00 76 1009.6
20260506224206 2 343 0.0 3.2 0.00 1.27 0.00 76 1009.9
20260506223906 2 342 0.0 6.4 0.00 1.27 0.00 77 1009.7
20260506223606 2 342 1.6 6.4 0.00 1.27 0.00 78 1009.7
20260506223305 2 338 1.6 6.4 0.00 1.27 0.00 77 1009.9
20260506223006 2 338 1.6 6.4 0.00 1.27 0.00 78 1009.8
20260506222707 3 337 1.6 6.4 0.00 1.27 0.00 77 1009.7
20260506222406 2 338 1.6 6.4 0.00 1.27 0.00 78 1009.9
20260506222106 2 339 0.0 3.2 0.00 1.27 0.00 79 1009.7
20260506221827 2 341 0.0 3.2 0.00 1.27 0.00 80 1009.7
20260506221506 2 341 0.0 3.2 0.00 1.27 0.00 80 1009.7
20260506221227 3 337 0.0 3.2 0.00 1.27 0.00 79 1009.8
20260506220906 3 337 1.6 3.2 0.00 1.27 0.00 76 1009.8
20260506220606 3 339 1.6 3.2 0.00 1.27 0.00 78 1009.7
20260506220305 2 339 1.6 3.2 0.00 1.27 0.00 79 1009.6
20260506220020 2 339 0.0 3.2 0.00 1.27 0.00 81 1009.7
20260506215705 2 351 0.0 3.2 0.00 1.27 1.27 81 1009.7
20260506215406 2 0 0.0 3.2 0.00 1.27 1.27 80 1009.6
20260506215106 2 0 0.0 3.2 0.00 1.27 1.27 81 1009.6
20260506214806 2 0 0.0 3.2 0.00 1.27 1.27 81 1009.6
20260506214506 2 0 0.0 3.2 0.00 1.27 1.27 81 1009.5
20260506214205 2 360 0.0 3.2 0.00 1.27 1.27 80 1009.6
20260506213906 3 298 0.0 3.2 0.00 1.27 1.27 79 1009.6
20260506213606 3 311 0.0 3.2 0.00 1.27 1.27 78 1009.4
20260506213307 3 311 0.0 3.2 0.00 1.27 1.27 78 1009.3
20260506213006 3 324 0.0 3.2 0.00 1.27 1.27 79 1009.5
20260506212727 3 334 0.0 3.2 0.00 1.27 1.27 79 1009.6
20260506212406 3 349 0.0 3.2 0.00 1.27 1.27 78 1009.3
20260506212107 2 7 0.0 3.2 0.00 1.27 1.27 77 1009.4
20260506211806 2 34 0.0 3.2 0.00 1.27 1.27 79 1009.4
20260506211505 2 38 0.0 3.2 0.00 1.27 1.27 79 1009.4
20260506211227 2 31 0.0 3.2 0.00 1.27 1.27 79 1009.5
20260506210906 2 0 0.0 3.2 0.00 1.27 1.27 81 1009.3
20260506210606 2 359 0.0 3.2 0.00 1.27 1.27 81 1009.4
20260506210305 2 349 0.0 3.2 0.00 1.27 1.27 81 1009.4
20260506210027 2 347 1.6 3.2 0.00 1.27 1.27 80 1009.4
20260506205705 3 347 0.0 3.2 0.00 1.27 1.27 80 1009.4
20260506205427 3 346 1.6 3.2 0.00 1.27 1.27 79 1009.3
20260506205108 3 348 1.6 6.4 0.00 1.27 1.27 79 1009.2
20260506204806 3 341 1.6 6.4 0.00 1.27 1.27 79 1009.3
20260506204506 3 342 3.2 6.4 0.00 1.27 1.27 79 1009.4
20260506204226 3 341 3.2 6.4 0.00 1.27 1.27 78 1009.1
20260506203906 3 341 3.2 6.4 0.00 1.27 1.27 78 1009.3
20260506203606 3 338 3.2 6.4 0.00 1.27 1.27 78 1009.3
20260506203306 3 340 1.6 6.4 0.00 1.27 1.27 77 1009.2
20260506203026 3 353 1.6 6.4 0.00 1.27 1.27 77 1009.3
20260506202707 3 37 0.0 6.4 0.00 1.27 1.27 79 1009.3
20260506202406 3 60 0.0 3.2 0.00 1.27 1.27 80 1009.0
20260506202106 2 64 0.0 3.2 0.00 1.27 1.27 79 1009.1
20260506201806 2 0 0.0 3.2 0.00 1.27 1.27 80 1009.1
20260506201527 3 36 0.0 6.4 0.00 1.27 1.27 80 1009.2
20260506201227 3 14 0.0 6.4 0.00 1.27 1.27 80 1009.2
20260506200927 3 355 1.6 6.4 0.00 1.27 1.27 80 1009.0
20260506200607 3 347 1.6 6.4 0.00 1.27 1.27 80 1009.1
20260506200306 3 344 1.6 3.2 0.00 1.27 1.27 80 1009.0
20260506200006 3 352 0.0 3.2 0.00 1.27 1.27 80 1009.2
20260506195706 2 0 0.0 3.2 0.00 1.27 1.27 81 1009.1
20260506195427 2 0 0.0 3.2 0.00 1.27 1.27 82 1009.1
20260506195105 3 0 0.0 3.2 0.00 1.27 1.27 80 1008.7
20260506194828 3 353 0.0 6.4 0.00 1.27 1.27 80 1009.1
20260506194506 3 350 1.6 6.4 0.00 1.27 1.27 79 1009.0
20260506194206 4 40 3.2 9.7 0.00 1.27 1.27 77 1008.9
20260506193926 4 68 4.8 9.7 0.00 1.27 1.27 76 1008.9
20260506193607 4 88 4.8 9.7 0.00 1.27 1.27 72 1008.8
20260506193305 4 85 4.8 12.9 0.00 1.27 1.27 70 1008.9
20260506193006 5 83 6.4 12.9 0.00 1.27 1.27 71 1008.8
20260506192705 4 81 8.0 12.9 0.00 1.27 1.27 71 1008.8
20260506192406 4 80 6.4 12.9 0.00 1.27 1.27 73 1008.7
20260506192106 4 73 3.2 12.9 0.00 1.27 1.27 74 1008.5
20260506191805 3 50 1.6 9.7 0.00 1.27 1.27 75 1008.7
20260506191505 3 346 0.0 3.2 0.00 1.27 1.27 77 1008.5
20260506191205 4 343 0.0 3.2 0.00 1.27 1.27 75 1008.6
20260506190905 4 22 1.6 6.4 0.00 1.27 1.27 77 1008.5
20260506190605 4 65 1.6 6.4 0.00 1.27 1.27 77 1008.4
20260506190305 3 75 1.6 6.4 0.00 1.27 1.27 74 1008.4
20260506190007 3 64 1.6 6.4 0.00 1.27 1.27 77 1008.2
20260506185705 3 52 0.0 6.4 0.00 1.27 1.27 78 1008.4
20260506185405 4 285 0.0 3.2 0.00 1.27 1.27 78 1008.1
20260506185106 4 282 0.0 3.2 0.00 1.27 1.27 77 1008.2
20260506184805 4 299 1.6 3.2 0.00 1.27 1.27 77 1008.2
20260506184527 4 326 1.6 3.2 0.00 1.27 1.27 74 1008.1
20260506184226 4 41 0.0 6.4 0.00 1.27 1.27 77 1008.1
20260506183905 5 67 0.0 6.4 0.00 1.27 1.27 76 1008.1
20260506183606 5 67 0.0 6.4 0.00 1.27 1.27 74 1008.0
20260506183306 5 51 0.0 3.2 0.00 1.27 1.27 75 1007.9
20260506183006 5 286 0.0 3.2 0.00 1.27 1.27 75 1008.0
20260506182706 5 293 0.0 3.2 0.00 1.27 1.27 76 1008.0
20260506182427 5 297 0.0 3.2 0.00 1.27 1.27 75 1008.0
20260506182106 5 164 0.0 3.2 0.00 1.27 1.27 72 1008.0
20260506181805 5 179 1.6 6.4 0.00 1.27 1.27 74 1008.1
20260506181505 5 200 3.2 20.9 0.00 1.27 1.27 74 1007.9
20260506181206 5 241 6.4 20.9 0.00 1.27 1.27 75 1007.8
20260506180926 5 236 6.4 20.9 0.00 1.27 1.27 73 1008.1
20260506180606 5 266 8.0 22.5 0.00 1.27 1.27 72 1007.9
20260506180305 6 165 8.0 27.4 0.00 1.27 1.27 72 1008.1
20260506180006 6 170 9.7 27.4 0.00 1.27 1.27 72 1008.0
20260506175706 6 163 8.0 27.4 0.00 1.27 1.27 71 1008.2
20260506175405 6 197 6.4 27.4 0.00 1.27 1.27 69 1007.6
20260506175105 6 218 4.8 22.5 0.00 1.27 1.27 67 1007.8
20260506174827 6 225 3.2 14.5 0.00 1.27 1.27 68 1007.9
20260506174506 6 236 4.8 14.5 0.00 1.27 1.27 68 1007.8
20260506174226 6 305 6.4 22.5 0.00 1.27 1.27 68 1007.9
20260506173905 6 294 6.4 22.5 0.00 1.27 1.27 67 1007.7
20260506173606 6 283 6.4 22.5 0.00 1.27 1.27 67 1007.6
20260506173305 6 214 4.8 17.7 0.00 1.27 1.27 67 1007.6
20260506173006 6 206 3.2 17.7 0.00 1.27 1.27 66 1007.6
20260506172726 6 150 1.6 11.3 0.00 1.27 1.27 68 1007.6
20260506172406 6 205 4.8 17.7 0.00 1.27 1.27 68 1007.6
20260506172106 6 232 4.8 17.7 0.00 1.27 1.27 69 1007.6
20260506171827 6 236 4.8 17.7 0.00 1.27 1.27 69 1007.3
20260506171505 6 212 3.2 17.7 0.00 1.27 1.27 66 1007.4
20260506171205 6 192 1.6 12.9 0.00 1.27 1.27 69 1007.4
20260506170927 6 158 1.6 12.9 0.00 1.27 1.27 68 1007.4
20260506170606 6 95 0.0 6.4 0.00 1.27 1.27 74 1007.2
20260506170327 7 83 0.0 6.4 0.00 1.27 1.27 73 1007.3
20260506170006 7 75 0.0 6.4 0.00 1.27 1.27 71 1007.2
20260506165706 7 78 0.0 6.4 0.00 1.27 1.27 70 1007.1
20260506165405 7 80 0.0 6.4 0.00 1.27 1.27 72 1007.3
20260506165106 7 90 0.0 3.2 0.00 1.27 1.27 74 1007.2
20260506164826 7 90 0.0 3.2 0.00 1.27 1.27 73 1007.2
20260506164526 7 90 0.0 3.2 0.00 1.27 1.27 73 1007.2
20260506164206 8 0 0.0 3.2 0.00 1.27 1.27 75 1007.4
20260506163927 8 0 0.0 3.2 0.00 1.27 1.27 72 1007.1
20260506163606 8 0 0.0 3.2 0.00 1.27 1.27 70 1007.2
20260506163305 8 324 0.0 3.2 0.00 1.27 1.27 72 1007.2
20260506163005 8 302 0.0 3.2 0.00 1.27 1.27 73 1007.2
20260506162706 8 302 0.0 3.2 0.00 1.27 1.27 75 1007.1
20260506162405 8 46 0.0 3.2 0.00 1.27 1.27 76 1007.4
20260506162106 7 97 0.0 3.2 0.00 1.27 1.27 80 1007.3
20260506161805 7 114 0.0 3.2 0.00 1.27 1.27 80 1007.0
20260506161506 7 108 1.6 9.7 0.00 1.27 1.27 82 1007.1
20260506161205 7 116 3.2 9.7 0.00 1.27 1.27 78 1007.1
20260506160926 7 112 3.2 9.7 0.00 1.27 1.27 78 1007.3
20260506160606 7 103 4.8 11.3 0.00 1.27 1.27 73 1006.9
20260506160305 7 102 4.8 11.3 0.00 1.27 1.27 78 1007.1
20260506160006 7 105 4.8 11.3 0.00 1.27 1.27 73 1007.2
20260506155705 8 116 3.2 9.7 0.00 1.27 1.27 74 1007.1
20260506155426 8 135 3.2 9.7 0.00 1.27 1.27 71 1007.0
20260506155126 9 126 3.2 17.7 0.00 1.27 1.27 73 1007.0
20260506154805 8 116 4.8 17.7 0.00 1.27 1.27 76 1007.3
20260506154505 8 110 4.8 17.7 0.00 1.27 1.27 77 1007.2
20260506154227 7 116 4.8 17.7 0.00 1.27 1.27 73 1007.3
20260506153906 6 118 9.7 29.0 0.00 1.27 1.27 77 1007.2
20260506153606 6 119 12.9 29.0 0.00 1.27 1.27 81 1007.4
20260506153306 6 113 14.5 29.0 0.00 1.27 1.27 85 1007.1
20260506153027 6 112 14.5 25.7 0.00 1.27 1.27 82 1007.3
20260506152705 6 107 12.9 22.5 0.00 1.27 1.27 82 1007.1
20260506152405 7 109 11.3 20.9 0.00 1.27 1.27 82 1006.9
20260506152126 7 108 11.3 20.9 0.00 1.27 1.27 78 1006.9
20260506151805 7 107 11.3 24.1 0.00 1.27 1.27 79 1006.8
20260506151505 7 106 11.3 24.1 0.00 1.27 1.27 78 1006.9
20260506151226 7 114 11.3 24.1 0.00 1.27 1.27 76 1007.0
20260506150927 8 120 9.7 24.1 0.00 1.27 1.27 74 1007.0
20260506150605 8 135 9.7 24.1 0.00 1.27 1.27 72 1007.2
20260506150327 8 128 11.3 24.1 0.00 1.27 1.27 73 1007.0
20260506150027 8 122 11.3 24.1 0.00 1.27 1.27 71 1007.0
20260506145705 8 120 9.7 24.1 0.00 1.27 1.27 75 1007.0
20260506145405 9 127 8.0 22.5 0.00 1.27 1.27 71 1006.9
20260506145127 8 145 8.0 17.7 0.00 1.27 1.27 76 1007.0
20260506144805 8 168 9.7 24.1 0.00 1.27 1.27 75 1007.0
20260506144505 7 167 9.7 24.1 0.00 1.27 1.27 73 1006.9
20260506144206 7 164 9.7 24.1 0.00 1.27 1.27 73 1006.9
20260506143906 7 141 9.7 24.1 0.00 1.27 1.27 74 1006.9
20260506143606 8 122 8.0 14.5 0.00 1.27 1.27 79 1007.0
20260506143305 7 117 8.0 14.5 0.00 1.27 1.27 84 1006.8
20260506143005 7 121 6.4 14.5 0.00 1.27 1.27 84 1006.7
20260506142705 8 121 4.8 9.7 0.00 1.27 1.27 80 1006.7
20260506142405 8 115 4.8 9.7 0.00 1.27 1.27 81 1006.7
20260506142126 8 121 4.8 9.7 0.00 1.27 1.27 81 1006.8
20260506141805 8 121 4.8 9.7 0.00 1.27 1.27 81 1006.6
20260506141505 8 119 4.8 9.7 0.00 1.27 1.27 82 1006.6
20260506141205 8 114 4.8 9.7 0.00 1.27 1.27 81 1006.6
20260506140907 9 117 4.8 11.3 0.00 1.27 1.27 78 1006.5
20260506140605 10 122 3.2 11.3 0.00 1.27 1.27 75 1006.6
20260506140305 10 134 3.2 11.3 0.00 1.27 1.27 80 1006.7
20260506140005 10 139 3.2 9.7 0.00 1.27 1.27 78 1006.5
20260506135706 8 149 3.2 6.4 0.00 1.27 1.27 78 1006.7
20260506135405 9 139 3.2 6.4 0.00 1.27 1.27 76 1006.4
20260506135105 10 142 3.2 6.4 0.00 1.27 1.27 79 1006.6
20260506134806 10 139 3.2 6.4 0.00 1.27 1.27 73 1006.6
20260506134505 10 139 3.2 6.4 0.00 1.27 1.27 79 1006.7
20260506134227 10 133 3.2 6.4 0.00 1.27 1.27 80 1006.7
20260506133926 10 128 3.2 9.7 0.00 1.27 1.27 81 1006.6
20260506133607 9 144 3.2 11.3 0.00 1.27 1.27 83 1006.5
20260506133305 9 162 4.8 11.3 0.00 1.27 1.27 80 1006.7
20260506133005 9 201 3.2 11.3 0.00 1.27 1.27 80 1006.6
20260506132705 9 230 3.2 11.3 0.00 1.27 1.27 83 1006.7
20260506132405 9 222 3.2 11.3 0.00 1.27 1.27 83 1006.6
20260506132105 8 184 3.2 11.3 0.00 1.27 1.27 87 1006.9
20260506131805 8 150 3.2 9.7 0.00 1.27 1.27 84 1006.9
20260506131505 8 141 3.2 9.7 0.00 1.27 1.27 82 1006.7
20260506131205 8 132 3.2 11.3 0.00 1.27 1.27 88 1006.6
20260506130926 8 141 3.2 11.3 0.00 1.27 1.27 86 1006.9
20260506130605 8 144 3.2 11.3 0.00 1.27 1.27 87 1006.9
20260506130305 8 150 3.2 11.3 0.00 1.27 1.27 89 1006.8
20260506130006 8 140 3.2 9.7 0.00 1.27 1.27 91 1006.9
20260506125726 8 152 4.8 12.9 0.00 1.27 1.27 90 1007.0
20260506125405 8 154 4.8 12.9 0.00 1.27 1.27 90 1006.8
20260506125126 8 154 4.8 12.9 0.00 1.27 1.27 90 1006.8
20260506124806 8 130 4.8 9.7 0.00 1.27 1.27 94 1006.9
20260506124526 7 119 4.8 9.7 0.00 1.27 1.27 94 1006.8
20260506124205 7 110 4.8 9.7 0.00 1.27 1.27 95 1006.9
20260506123905 6 120 4.8 9.7 0.00 1.27 1.27 94 1007.0
20260506123605 6 126 4.8 9.7 0.00 1.27 1.27 92 1006.9
20260506123305 7 136 4.8 9.7 0.00 1.27 1.27 90 1006.8
20260506123006 8 146 3.2 9.7 0.03 1.27 1.27 91 1006.9
20260506122705 8 142 1.6 6.4 0.03 1.27 1.27 94 1006.9
20260506122405 8 133 1.6 6.4 0.03 1.27 1.27 93 1006.8
20260506122126 8 219 1.6 6.4 0.03 1.27 1.27 96 1006.9
20260506121805 6 259 1.6 9.7 0.05 1.27 1.27 94 1006.9
20260506121526 6 297 1.6 9.7 0.05 1.27 1.27 95 1006.8
20260506121205 5 293 1.6 9.7 0.05 1.27 1.27 95 1006.7
20260506120905 4 320 1.6 6.4 0.05 1.27 1.27 95 1006.6
20260506120605 3 335 1.6 9.7 0.05 1.27 1.27 94 1006.8
20260506120305 3 344 1.6 9.7 0.05 1.27 1.27 94 1006.7
20260506120026 3 7 1.6 9.7 0.05 1.27 1.27 94 1006.8
20260506115707 3 12 1.6 9.7 0.10 1.27 1.27 94 1006.8
20260506115427 3 14 1.6 9.7 0.10 1.27 1.27 94 1006.8
20260506115106 3 16 3.2 17.7 0.15 1.27 1.27 94 1006.7
20260506114826 3 27 3.2 17.7 0.18 1.27 1.27 93 1006.9
20260506114527 3 27 3.2 17.7 0.18 1.27 1.27 92 1006.7
20260506114206 3 29 3.2 17.7 0.23 1.27 1.27 91 1006.7
20260506113905 3 42 3.2 12.9 0.23 1.27 1.27 92 1006.6
20260506113626 3 45 3.2 12.9 0.23 1.27 1.27 92 1006.6
20260506113326 3 56 1.6 12.9 0.23 1.27 1.27 93 1006.4
20260506113005 3 29 1.6 12.9 0.20 1.22 1.22 92 1006.8
20260506112705 3 354 1.6 6.4 0.20 1.22 1.22 93 1006.8
20260506112426 3 19 1.6 11.3 0.20 1.22 1.22 93 1006.8
20260506112105 3 7 1.6 11.3 0.20 1.22 1.22 93 1006.8
20260506111806 3 4 1.6 11.3 0.18 1.19 1.19 93 1006.7
20260506111505 3 328 3.2 9.7 0.18 1.19 1.19 93 1006.6
20260506111205 3 327 3.2 9.7 0.18 1.19 1.19 93 1006.9
20260506110926 3 339 3.2 9.7 0.18 1.19 1.19 92 1007.0
20260506110605 2 356 3.2 12.9 0.18 1.19 1.19 92 1007.0
20260506110305 2 27 3.2 12.9 0.18 1.19 1.19 94 1006.9
20260506110005 2 355 3.2 17.7 0.18 1.19 1.19 95 1006.9
20260506105705 2 37 9.7 38.6 0.15 1.17 1.17 95 1007.1
20260506105405 2 42 9.7 38.6 0.13 1.14 1.14 94 1007.0
20260506105105 2 53 11.3 38.6 0.10 1.12 1.12 95 1007.0
20260506104805 2 36 11.3 49.9 0.05 1.09 1.09 93 1006.9
20260506104505 2 55 12.9 62.8 0.03 1.04 1.04 95 1006.9
20260506104205 2 88 14.5 62.8 0.00 1.02 1.02 94 1007.0
20260506103926 3 106 12.9 62.8 0.00 1.02 1.02 93 1007.0
20260506103626 3 134 9.7 62.8 0.00 1.02 1.02 94 1006.9
20260506103326 5 169 3.2 20.9 0.00 1.02 1.02 96 1006.6
20260506103026 5 183 3.2 9.7 0.03 1.02 1.02 96 1006.5
20260506102705 5 190 4.8 11.3 0.03 1.02 1.02 96 1006.3
20260506102405 5 185 4.8 11.3 0.03 1.02 1.02 95 1006.1
20260506102105 6 190 3.2 11.3 0.03 1.02 1.02 96 1006.0
20260506101805 7 163 1.6 9.7 0.03 1.02 1.02 97 1006.0
20260506101526 6 283 1.6 3.2 0.03 1.02 1.02 99 1005.9
20260506101205 5 298 0.0 3.2 0.05 1.02 1.02 98 1005.8
20260506100906 5 264 0.0 3.2 0.05 1.02 1.02 98 1006.0
20260506100626 5 172 0.0 3.2 0.05 1.02 1.02 98 1006.1
20260506100305 5 123 0.0 3.2 0.05 1.02 1.02 98 1006.0
20260506100026 4 117 0.0 3.2 0.05 1.02 1.02 98 1006.0
20260506095706 5 132 0.0 3.2 0.05 1.02 1.02 98 1006.1
20260506095405 5 183 1.6 3.2 0.10 1.02 1.02 98 1006.1
20260506095106 5 209 1.6 3.2 0.10 1.02 1.02 98 1006.1
20260506094805 4 215 1.6 3.2 0.10 1.02 1.02 98 1006.0
20260506094505 5 205 0.0 3.2 0.10 1.02 1.02 97 1006.0
20260506094205 4 136 0.0 6.4 0.10 1.02 1.02 97 1006.0
20260506093905 4 122 1.6 6.4 0.10 1.02 1.02 97 1005.9
20260506093605 4 94 1.6 6.4 0.10 1.02 1.02 97 1006.0
20260506093326 4 65 0.0 6.4 0.10 1.02 1.02 97 1006.1
20260506093005 4 331 0.0 3.2 0.05 0.99 0.99 97 1005.8
20260506092705 4 322 0.0 3.2 0.05 0.99 0.99 97 1006.0
20260506092405 4 314 0.0 3.2 0.05 0.99 0.99 97 1006.0
20260506092104 4 322 0.0 6.4 0.05 0.99 0.99 97 1005.9
20260506091806 4 326 1.6 6.4 0.05 0.99 0.99 97 1005.9
20260506091505 4 329 1.6 6.4 0.05 0.99 0.99 96 1005.9
20260506091226 4 353 1.6 3.2 0.03 0.97 0.97 96 1005.9
20260506090905 3 77 1.6 12.9 0.05 0.97 0.97 95 1006.0
20260506090605 3 91 3.2 12.9 0.05 0.97 0.97 95 1006.1
20260506090326 3 98 3.2 12.9 0.05 0.97 0.97 95 1006.0
20260506090005 3 102 3.2 12.9 0.10 0.97 0.97 95 1006.0
20260506085706 4 106 1.6 12.9 0.10 0.97 0.97 96 1006.1
20260506085405 5 106 0.0 6.4 0.05 0.94 0.94 97 1006.1
20260506085105 5 96 0.0 3.2 0.10 0.94 0.94 97 1006.3
20260506084805 5 20 1.6 11.3 0.10 0.94 0.94 97 1006.2
20260506084505 4 360 1.6 12.9 0.13 0.94 0.94 97 1006.2
20260506084226 3 349 3.2 12.9 0.15 0.94 0.94 97 1006.0
20260506083905 3 343 3.2 12.9 0.15 0.94 0.94 97 1005.9
20260506083605 3 341 4.8 12.9 0.18 0.94 0.94 97 1006.0
20260506083305 3 336 3.2 12.9 0.20 0.94 0.94 97 1006.2
20260506083005 3 341 3.2 11.3 0.23 0.94 0.94 97 1006.0
20260506082704 4 339 1.6 11.3 0.23 0.94 0.94 97 1006.2
20260506082405 4 341 1.6 9.7 0.28 0.94 0.94 97 1006.0
20260506082126 4 340 0.0 6.4 0.28 0.94 0.94 97 1006.2
20260506081805 4 82 1.6 11.3 0.30 0.94 0.94 97 1006.3
20260506081505 3 83 4.8 14.5 0.30 0.94 0.94 97 1006.2
20260506081205 3 87 9.7 25.7 0.30 0.94 0.94 96 1006.1
20260506080905 2 92 11.3 25.7 0.30 0.89 0.89 96 1006.2
20260506080605 2 98 11.3 25.7 0.30 0.89 0.89 97 1006.1
20260506080325 2 100 12.9 37.0 0.30 0.89 0.89 97 1006.2
20260506073326 2 94 6.4 11.3 0.15 0.71 0.71 96 1005.9
20260506073005 3 95 6.4 11.3 0.13 0.69 0.69 97 1005.8
20260506072705 3 90 6.4 11.3 0.13 0.69 0.69 97 1005.9
20260506072405 3 89 4.8 9.7 0.10 0.66 0.66 97 1005.7
20260506072105 3 98 3.2 9.7 0.05 0.64 0.64 97 1005.7
20260506071805 3 109 1.6 6.4 0.05 0.64 0.64 97 1005.9
20260506071505 3 117 1.6 6.4 0.05 0.64 0.64 97 1005.7
20260506071205 3 113 0.0 3.2 0.05 0.64 0.64 97 1006.0
20260506070904 3 80 0.0 3.2 0.05 0.61 0.61 97 1005.9
20260506070626 3 0 0.0 3.2 0.10 0.61 0.61 97 1005.8
20260506070305 3 0 0.0 3.2 0.10 0.56 0.56 97 1006.0
20260506062404 3 74 8.0 25.7 0.46 0.61 0.56 96 1005.7
20260506062127 3 85 9.7 33.8 0.48 0.61 0.56 95 1005.9
20260506061805 2 80 14.5 33.8 0.48 0.61 0.56 94 1005.9
20260506061504 2 81 19.3 43.5 0.51 0.61 0.56 96 1005.8
20260506061204 2 83 22.5 43.5 0.53 0.61 0.56 98 1005.9
20260506060905 2 88 27.4 48.3 0.51 0.56 0.53 98 1005.9
20260506060604 2 90 25.7 48.3 0.48 0.56 0.51 99 1005.8
20260506060326 3 95 20.9 48.3 0.46 0.53 0.48 99 1006.1